KUIPER-00214

Last updated on Sun Mar 15 2026 00:02:06 GMT+0000 (Coordinated Universal Time)

1 67778U 26030Q 26073.62186474 .00050254 00000+0 13670-2 0 9996 2 67778 51.8847 195.1444 0000790 339.9806 20.1150 15.37035631 5853
UTC large
Height (km)
Speed (km/s)
/
Latitude / Longitude
Inclination (degrees)
Orbital Period (minutes)
Azimuth
Elevation
Range (km)
Doppler Factor

Next 0 passes for location: London (51.5072 / 0.1276)

Sorry there are no passes over London.